Regional Weather Roundup
Issued by NWS Newport/Morehead, NC

Current Version | Previous Version | Text Only | Print | Product List | Glossary On
Versions: 1 2 3 4 5 6 7 8 9 10 11 12 13 14 15 16 17 18 19 20 21 22 23 24 25 26 27 28 29 30 31 32 33 34 35 36 37 38 39 40 41 42 43 44 45 46 47 48 49 50
000
ASUS42 KMHX 241625
RWRMHX
WEATHER ROUNDUP FOR EASTERN NORTH CAROLINA
NATIONAL WEATHER SERVICE NEWPORT/MOREHEAD CITY NC
1200 PM EDT MON APR 24 2017

NOTE: "FAIR" INDICATES FEW OR NO CLOUDS BELOW 12,000 FEET
WITH NO SIGNIFICANT WEATHER AND/OR OBSTRUCTIONS TO VISIBILITY

NCZ015>017-031-032-045>047-102-103-241700-
NORTH COAST

CITY           SKY/WX    TMP DP  RH WIND       PRES   REMARKS
EDENTON        RAIN      69  65  89 NE9       29.88
ELIZABETH CITY LGT RAIN  69  67  93 NE12      29.89F
KITTY HAWK     CLOUDY    64  64 100 CALM      29.89S
MANTEO         CLOUDY    68  64  84 E9        29.90S

$$

NCZ045>047-081-094-103-104-241700-
CENTRAL COAST

CITY           SKY/WX    TMP DP  RH WIND       PRES   REMARKS
FRISCO         LGT RAIN  69  62  78 SE16      29.86F

$$

NCZ095-097-098-100-101-241700-
SOUTHERN COAST

CITY           SKY/WX    TMP DP  RH WIND       PRES   REMARKS
BEAUFORT       LGT RAIN  68  68 100 SE7       29.83F FOG
CEDAR ISLAND   NOT AVBL
JACKSONVILLE   LGT RAIN  67  65  93 SE12G22   29.81S FOG
PINEY ISLAND   NOT AVBL
WILMINGTON     LGT RAIN  66  64  93 NE9       29.77F


$$

NCZ011>013-027>030-043-044-078>080-089-090>093-098-241700-
COASTAL PLAIN

CITY           SKY/WX    TMP DP  RH WIND       PRES   REMARKS
AHOSKIE          N/A     59  59  99 N9        29.90F
CLINTON        CLOUDY    62  62 100 NE6       29.82F
ELIZABETHTOWN  CLOUDY    63  63 100 CALM      29.79F FOG
GOLDSBORO      LGT RAIN  64  64 100 N5        29.81F FOG
GREENVILLE     RAIN      64  64 100 NE6       29.87F
HAVELOCK       LGT RAIN  67  65  93 VRB5      29.84F
KENANSVILLE    LGT RAIN  64  63  94 CALM      29.82F
KINSTON        NOT AVBL
NEW BERN       RAIN      66  66 100 SE6       29.84F FOG
RICHLANDS      LGT RAIN  66  64  94 VRB7      29.81F FOG
ROCKY MOUNT    CLOUDY    60  60 100 NE13      29.87F
WASHINGTON     RAIN      66  65  97 E5        29.85F
WHITEVILLE     HVY RAIN  64  63  96 NE6       29.76F

$$

AMZ130-135-150-152-154-156-158-170-250-252-270-ANZ085-086-088-633-658-670-241700-
MARINE OBSERVATIONS

STATION/POSITION TIME  TEMP    WIND        PRES    WAVE   SWELL
                       AIR SEA DIR/SP/G            HT/PER HT/PER
                 (UTC) (F)     (DEG/KT/KT) (MB)    (FT/S) (FT/S)
CHESAPEAKE LIGHT NOT AVBL
64 E VA BEACH    1550   59 54   90/  8/  8 1014.2    5/ 8   5/ 8
DUCK             1600   61 61   70/ 13/ 16 1011.8
2 E DUCK         1600      62                N/A     5/12   2/12
OREGON INLET     1600   65 59   70/  7/  9 1011.8
13E OREGON INLT  1548      56                N/A     6/11   5/11
HATTERAS CG      1600   71 67  110/ 17/ 23 1010.6
DIAMOND BUOY     1550   77 79  130/ 21/ 27 1010.7    7/11   5/11
CAPE LOOKOUT     1600   67     120/ 16/ 19 1009.9
BEAUFORT LAB     1600   67 65  130/  6/ 10 1009.2
30 SE NEW RVR IN 1608   67     100/ 10/ 14 1008.6
30 SE NEW RVR IN 1543      71                N/A     7/ 8   2/11
27 SE WRIGHTSVLE 1608   68 71  180/ 16/ 23 1007.1
5 SE WRIGHTSVLE  1608   68 69   50/ 12/ 17 1008.0
225 S CAPE HAT   1550   71 75  110/ 25/ 35 1009.4    8/ 6   2/11
41 SE CHARLESTON 1610   69 73  200/ 19/ 23 1005.0

$$



USA.gov is the U.S. government's official web portal to all federal, state and local government web resources and services.